Погода в Кожинке

Россия / Тульская область     53°23′39″N   36°59′35″E
темп.,
°C
ветер,
м/с
пор.,
м/с
влажн.,
%
обл.,
%
осадки,
мм/ч
давл.,
гПа
погр.,
м
19 апреля, пн
пн1900:00+6св3586100 0.1 101890
03:00+5всв36937 0.4 1018139
06:00+4св379664 0.0 1018173
09:00+8всв688455 0.0 1018613
12:00+9всв6776100 0.2 1018983
15:00+6всв6887100 0.4 1019799
18:00+5св6992100 0.6 1018718
21:00+6всв5993100 0.6 1018477
20 апреля, вт
вт2000:00+6всв51196100 0.1 1017656
03:00+6в41096100 12.3 10151006
06:00+6в71391100 1.1 1016611
09:00+6в7129097 1.1 1015549
12:00+5в71091100 0.0 1015726
15:00+4всв71294100 0.0 1013596
18:00+4св71295100 0.2 1009635
21:00+2св71397100 3.6 1006597
21 апреля, ср
ср2100:00+1ссв71498100 4.6 1002447
03:000сз713100100 12.5 999426
06:000з81499100 2.8 1000567
09:00+1зюз712100100 2.8 1004694
12:00+2зюз61297100 0.1 1007739
15:00+5зюз51092100 0.1 1010405
18:00+6юз598886 0.2 1011292
21:00+4ююз48935 0.3 1013164
22 апреля, чт
чт2200:00+3ююз4109150 0.0 1014176
03:00+4ю51387100 0.1 1015326
06:00+4ююз4108887 0.1 1015264
09:00+7ююз51086100 0.1 1016393
12:00+12ююз7116665 0.1 10171371
15:00+14ююз795788 0.4 10161797
18:00+13ююз486591 0.1 1017259
21:00+9ю4117824 0.2 1018229
23 апреля, пт
пт2300:00+8ю498255 0.0 1018156
03:00+7ю488953 0.0 1018137
06:00+6ю410905 0.0 1018181
09:00+11ю6107252 0.0 1017465
12:00+15ю78515 0.0 10161778
15:00+14ю696096 0.2 1014912
18:00+14ю711635 0.4 1013875
21:00+10ю6147854 0.8 1012443